Lid_Strength_Index
12 11 11 11 11 10 12 9 12 11 10 8 8 8 7 7 8 8 9 9 8 8 7 7 7 6 6 6 6 6 7 7 7 7 8 8 7 6 6 7 7 7 7 8
12 11 10 11 11 10 10 10 10 10 10 7 8 8 9 9 8 9 9 9 9 8 8 8 7 7 7 7 6 6 7 8 8 8 7 7 8 8 8 8 8 8 9 9
14 12 12 13 10 10 9 9 10 12 10 10 10 10 9 8 9 9 9 9 9 9 9 8 7 7 7 7 7 8 9 9 9 8 9 9 9 9 9 9 9 9 9 9
13 13 20 10 10 10 10 10 9 9 9 9 9 9 9 8 8 9 9 9 9 9 9 8 7 7 7 8 9 9 10 10 10 10 10 10 10 10 9 9 10 10 10 10
16 14 11 10 10 10 11 10 9 9 9 9 9 8 10 9 8 9 9 9 9 9 9 9 9 9 9 10 10 10 10 11 11 10 10 10 10 10 10 10 10 11 11 11
13 15 17 9 10 9 9 12 9 9 9 8 8 10 10 10 9 10 10 10 10 10 10 10 10 10 11 12 11 11 11 11 10 10 11 11 11 11 11 11 11 11 11 10
12 13 11 8 9 9 13 10 8 8 8 7 8 8 10 9 10 10 11 11 11 11 11 11 11 11 12 11 12 11 11 11 11 11 11 11 11 11 11 12 12 12 11 9
12 16 16 7 9 10 7 7 7 7 7 8 9 10 10 11 11 12 12 12 11 12 12 12 12 11 11 12 11 11 11 12 12 12 12 12 12 12 12 12 13 12 10 8
10 10 6 7 7 7 6 6 7 7 8 9 10 11 11 12 12 12 12 12 12 12 13 13 11 11 12 12 12 12 13 13 13 13 13 13 13 13 13 13 13 11 10 8
9 7 7 7 7 6 6 6 6 7 8 9 11 11 12 12 13 13 13 13 13 13 13 12 12 12 12 13 13 13 14 14 13 14 14 13 13 13 14 14 12 11 10 10
9 8 7 7 7 6 7 7 7 8 8 9 10 11 12 13 13 13 13 13 13 13 13 13 12 13 13 14 14 15 14 14 14 14 14 14 14 14 14 12 12 11 10 10
9 6 6 6 6 6 7 8 8 9 10 10 10 11 12 13 13 14 14 14 14 13 13 13 13 14 14 14 15 15 15 15 15 15 14 14 14 14 13 12 11 10 10 9
6 5 6 6 6 6 7 8 8 9 10 11 11 12 12 13 14 15 14 14 14 13 13 13 14 15 14 14 15 15 16 16 15 15 15 15 15 14 12 9 9 9 9 10
6 7 8 8 8 7 8 9 9 10 10 11 12 12 13 15 15 15 15 14 13 13 14 14 15 15 15 15 15 15 16 17 15 15 15 15 15 13 11 10 9 8 8 9
7 7 6 7 8 9 9 10 11 12 12 13 13 14 14 15 15 15 15 14 14 14 15 15 15 16 15 15 16 16 16 16 16 15 15 16 14 12 10 9 9 9 9 9
8 8 9 9 10 11 11 11 12 13 13 13 14 14 14 15 15 15 15 14 14 15 15 17 16 16 16 16 16 16 16 17 17 16 15 15 13 11 10 10 9 9 10 10
10 11 10 11 11 11 11 11 12 13 13 14 14 15 15 15 15 16 15 14 14 15 15 15 16 16 16 16 17 16 16 16 17 16 16 15 13 11 10 10 10 10 10 10
7 8 9 10 11 11 11 12 12 13 14 14 15 15 16 16 17 17 16 15 16 16 15 16 16 17 17 17 17 16 16 16 16 16 16 14 13 11 10 10 10 11 11 11
7 9 9 10 11 11 12 13 13 13 14 15 16 17 16 16 16 16 15 17 17 17 17 16 19 18 18 19 19 16 17 17 17 16 15 15 12 11 11 11 11 11 11 11
9 10 11 11 12 12 13 13 14 14 15 15 16 17 17 18 17 17 16 16 16 16 16 17 17 18 18 19 19 17 17 17 17 17 15 14 12 12 11 11 11 12 11 11
11 12 13 13 13 13 14 14 15 15 15 17 17 18 18 19 18 17 17 16 17 17 17 19 19 19 18 20 18 17 17 18 17 17 15 13 13 12 11 11 11 12 12 12
12 14 15 14 14 15 15 14 15 16 17 18 18 19 19 19 18 17 17 16 17 19 17 18 19 22 21 22 18 18 18 18 18 16 14 13 13 12 12 12 12 13 12 12
14 15 16 17 17 16 16 17 17 17 18 19 19 19 18 17 16 16 17 17 17 20 18 20 23 24 23 18 18 18 18 18 18 17 15 14 14 13 12 12 13 13 13 14
15 16 17 17 18 18 18 18 17 17 18 18 18 17 17 16 16 16 17 20 21 20 20 21 22 24 23 19 19 19 19 18 18 17 15 15 14 14 13 13 13 13 14 14
16 17 17 17 17 17 17 17 17 17 17 17 18 17 17 15 15 16 17 19 21 20 20 25 26 24 20 19 20 20 19 18 18 17 16 15 15 14 14 14 14 14 15 15
16 16 15 15 16 15 16 16 17 16 17 18 18 17 16 17 17 18 18 20 20 22 20 20 21 20 20 20 20 20 20 19 18 17 17 16 16 15 15 15 15 15 15 15
15 16 15 15 15 16 15 16 16 17 17 17 18 17 17 17 18 18 20 19 20 21 20 20 20 21 21 21 20 20 20 19 20 18 16 16 16 16 16 16 16 16 16 16